This is the latest recevied weather packets stored in our database for station/object G4KVI. If no packets are shown the sender has not sent any weather packets the latest 1 day(s).
| Time | Temp. | Humidity | Pressure | Rain* | Wind** | Luminosity | Snow |
|---|---|---|---|---|---|---|---|
| 1778010966 | 11.67° C | 63% | 1015.5 hPa | 0 mm | 0.89 m/s, 340° | 0 W/m² | - |
| 1778010666 | 11.67° C | 63% | 1015.2 hPa | 0 mm | 0.89 m/s, 358° | 0 W/m² | - |
| 1778010366 | 11.67° C | 63% | 1015.2 hPa | 0 mm | 0.89 m/s, 5° | 1 W/m² | - |
| 1778010066 | 11.67° C | 63% | 1014.9 hPa | 0 mm | 0.89 m/s, 5° | 2 W/m² | - |
| 1778009766 | 11.67° C | 63% | 1015.2 hPa | 0 mm | 0.89 m/s, 2° | 3 W/m² | - |
| 1778009466 | 11.67° C | 62% | 1015.2 hPa | 0 mm | 0.89 m/s, 356° | 5 W/m² | - |
| 1778009166 | 11.67° C | 62% | 1015 hPa | 0 mm | 0.45 m/s, 5° | 7 W/m² | - |
| 1778008866 | 12.22° C | 62% | 1015.1 hPa | 0 mm | 0.45 m/s, 19° | 9 W/m² | - |
| 1778008566 | 12.22° C | 62% | 1014.9 hPa | 0 mm | 0.45 m/s, 40° | 12 W/m² | - |
| 1778008268 | 12.22° C | 61% | 1015.1 hPa | 0 mm | 0.45 m/s, 53° | 15 W/m² | - |
| 1778007969 | 12.22° C | 61% | 1015 hPa | 0 mm | 0.89 m/s, 48° | 18 W/m² | - |
| 1778007668 | 12.78° C | 60% | 1014.9 hPa | 0 mm | 0.89 m/s, 40° | 23 W/m² | - |
| 1778007368 | 12.78° C | 59% | 1014.7 hPa | 0 mm | 1.34 m/s, 30° | 27 W/m² | - |
| 1778007068 | 12.78° C | 59% | 1014.9 hPa | 0 mm | 0.89 m/s, 15° | 31 W/m² | - |
| 1778006768 | 12.78° C | 59% | 1014.8 hPa | 0 mm | 0.89 m/s, 13° | 36 W/m² | - |
| 1778006468 | 12.78° C | 59% | 1014.7 hPa | 0 mm | 0.89 m/s, 11° | 39 W/m² | - |
| 1778006168 | 13.33° C | 58% | 1015.1 hPa | 0 mm | 0.89 m/s, 356° | 44 W/m² | - |
| 1778005868 | 13.33° C | 58% | 1014.6 hPa | 0 mm | 0.89 m/s, 18° | 49 W/m² | - |
| 1778005568 | 13.33° C | 57% | 1014.8 hPa | 0 mm | 1.34 m/s, 16° | 53 W/m² | - |
| 1778005268 | 13.33° C | 56% | 1014.8 hPa | 0 mm | 1.34 m/s, 355° | 57 W/m² | - |
| 1778004968 | 13.33° C | 56% | 1014.7 hPa | 0 mm | 1.34 m/s, 349° | 64 W/m² | - |
| 1778004668 | 13.33° C | 55% | 1014.8 hPa | 0 mm | 1.34 m/s, 31° | 68 W/m² | - |
| 1778004368 | 13.33° C | 56% | 1014.8 hPa | 0 mm | 1.34 m/s, 62° | 75 W/m² | - |
| 1778004068 | 13.33° C | 56% | 1014.6 hPa | 0 mm | 1.34 m/s, 57° | 91 W/m² | - |
| 1778003768 | 13.33° C | 56% | 1015 hPa | 0 mm | 1.79 m/s, 60° | 87 W/m² | - |
* Rain latest hour (hover to see other rain measurements)
** Current wind speed in m/s (hover to see current wind gust speed)